Location: Bushrod
(6.3500°N, 10.7833°W)
Time: 14:38:27
(UTC+00:00)

Cosmos 2227 Rocket - Pass Details

Date: 17 September 2019
Orbit: 837 x 847 km, 71.0° (Epoch: 15 October)

Event Time Altitude Azimuth Distance (km) Brightness Sun altitude
Rises 20:47:37 0° 217° (SW) 3,381 5.7 -32.0°
Reaches altitude 10° 20:50:21 10° 227° (SW) 2,447 5.0 -32.7°
Maximum altitude 20:55:10 30° 287° (WNW) 1,472 3.9 -33.8°
Drops below altitude 10° 21:00:00 10° 346° (NNW) 2,447 4.8 -35.0°
Sets 21:02:44 0° 357° (N) 3,382 5.4 -35.7°
